map of BTH home
Great Circle Mapper logo
BTH - Airport
Location
City:  Batam, Batu Besar, Indonesia
Name:Hang Nadim
ICAO / IATA:WIDD / BTH

Details
Type:Airport (Aerodrome, Airfield)
Use:Public/Civil
Latitude:107'16"N (1.121028)
Longitude:10407'08"E (104.118753)
Datum:WGS 1984
Elevation:126 ft (38 m)
Variation:0.3E (WMM2015 magnetic declination)
Runways:1
Longest:13256 × 148 ft (4040 × 45 m), paved

Time
Time Zone:UTC+7
Local Time:

Weather
METAR:WIDD 221800Z AUTO 31004KT 9999NDV SCT032 OVC075 25/25 Q1007 METAR WADD 221800Z 35003KT 300V090 9999 FEW017 27/25 Q1007 NOSIG
TAF:WIDD 221100Z 2212/2312 04010KT 8000 SCT014 FEW017CB
TEMPO 2212/2214 5000 TSRA BKN014 PROB30
TEMPO 2218/2219 5000 -RA BKN014
BECMG 2221/2223 00000KT FEW014

Related Locations
Nearby:
Farthest:TPN: 12426 mi / 19998 km
Tiputini, Oreliana, EC

Find:

   beyond  
but within

Other Information
Maps:
NOTAMs:
Links:
Sources:

  
flag of Indonesia   

Sectional Chart

Flight Planning
at skyvector.com

Satellite Image

Google Maps Satellite View

 

Copyright © 2004-2014 Karl L. Swartz. All rights reserved.
The Great Circle Mapper name and logo are trademarks of the Great Circle Mapper.
All other trademarks mentioned herein belong to their respective owners.
Please see credits for attibutions and further copyright information.

  Follow gcmap on Facebook Follow gcmap on Twitter

hCard Microformat

Geo Microformat